Regional Weather Roundup
Issued by NWS

Home | Current Version | Previous Version | Text Only | Print | Product List | Glossary On
Versions: 1 2 3 4 5 6 7 8 9 10 11 12 13 14 15 16 17 18 19 20 21 22 23 24 25 26 27
000
ASUS45 KBOU 221407
RWRCO

WEATHER ROUNDUP FOR COLORADO
NATIONAL WEATHER SERVICE DENVER/BOULDER CO
800 AM MDT FRI JUL 22 2016

NOTE: "FAIR" INDICATES FEW OR NO CLOUDS BELOW 12000 FEET WITH NO
SIGNIFICANT WEATHER AND/OR OBSTRUCTIONS TO VISIBILITY.

COZ001>005-013-030-031-221500-
...NORTHWEST COLORADO...

CITY           SKY/WX    TMP DP  RH WIND       PRES   REMARKS
CRAIG          FAIR      61  50  67 W5        30.37S
HAYDEN         FAIR      61  46  59 E9        30.39S
MEEKER         FAIR      61  51  70 CALM      30.39S
MOUNT WERNER   NOT AVBL
STEAMBOAT SPGS FAIR      55  48  77 CALM      30.42F
WALDEN         FAIR      52  46  82 SW5       30.52S
$$

COZ006>008-011-221500-
...WEST CENTRAL VALLEYS...

CITY           SKY/WX    TMP DP  RH WIND       PRES   REMARKS
GRAND JUNCTION FAIR      76  52  43 E6        30.27R
MONTROSE       FAIR      69  53  56 SE8       30.37S
EAGLE          SUNNY     57  52  82 CALM      30.48S
RIFLE          FAIR      65  52  62 CALM      30.35S
DELTA          FAIR      71  55  58 NE6       30.34R
NUCLA          FAIR      64  54  68 SE5       30.40R
$$

COZ017>023-064>068-221500-
...SOUTHWEST COLORADO...

CITY           SKY/WX    TMP DP  RH WIND       PRES   REMARKS
DURANGO        FAIR      64  50  60 CALM      30.42R
CORTEZ         PTSUNNY   68  54  60 E5        30.36S
PAGOSA SPRINGS FAIR      63  48  59 CALM      30.50R
TELLURIDE      FAIR      58  48  68 CALM      30.61S
WOLF CREEK PAS FAIR      52  41  66 SW13      30.82R
$$

COZ009-010-012-014-032>034-037-058>063-221500-
...CENTRAL COLORADO...

CITY           SKY/WX    TMP DP  RH WIND       PRES   REMARKS
ASPEN          FAIR      56  50  80 SE6       30.50S
BUENA VISTA    FAIR      60  50  69 NW9       30.51S
COPPER MTN     FAIR      54  41  62 NW5       30.80S
BERTHOUD PASS  FAIR      45  32  61 N16G22    30.82S
COTTONWOOD PAS FAIR      63  45  51 CALM      30.64R
GUNNISON       FAIR      57  48  72 CALM      30.55R
KREMMLING      CLOUDY    54  50  87 CALM      30.52S
LEADVILLE      FAIR      49  44  83 CALM      30.63S
MONARCH PASS   FAIR      48  43  81 W12       30.90R
SALIDA         FAIR      61  52  73 W3        30.56S
SUNLIGHT       FAIR      57  46  67 CALM      30.73S
WILKERSON PASS FAIR      54  39  58 W6        30.76S
$$

COZ069>075-221500-
...SAN LUIS VALLEY/SANGRE DE CRISTO MOUNTAINS...

CITY           SKY/WX    TMP DP  RH WIND       PRES   REMARKS
ALAMOSA        FAIR      62  51  67 CALM      30.48R
LA VETA PASS   FAIR      57  43  58 SW5       30.65R
SAGUACHE       FAIR      61  48  63 NW13      30.52R
$$

COZ035-036-038>040-221500-
...NORTHERN COLORADO FRONT RANGE...

CITY           SKY/WX    TMP DP  RH WIND       PRES   REMARKS
DENVER INTL AP FAIR      78  50  37 W12       30.23R
DMNS CITY PARK   N/A     77  50  39 S2        30.24S
AURORA         MOSUNNY   76  51  41 SW13      30.26R
FRONT RANGE AP PTSUNNY   82  50  32 SW10      30.25R
ERIE MUNI ARPT FAIR      74  52  44 CALM      30.23S
BOULDER MUN AP FAIR      75  50  41 S3        30.23R
CENTENNIAL     FAIR      77  45  32 SW16      30.27R
BROOMFIELD     MOSUNNY   75  46  35 W3        30.26R
LONGMONT       FAIR      74  55  52 CALM      30.23S
$$

COZ041-046-047-076>085-087-088-221500-
...PIKES PEAK/PALMER DIVIDE AND SOUTHERN FOOTHILLS...

CITY           SKY/WX    TMP DP  RH WIND       PRES   REMARKS
COLO. SPRINGS  PTSUNNY   76  53  44 N3        30.32R
A. F. ACADEMY  PTSUNNY   73  49  43 N6        30.34R
SCHRIEVER AFB  NOT AVBL
ELLICOTT       FAIR     N/A N/A N/A CALM      30.30R
FALCON         FAIR      74  51  44 CALM      30.38R
FORT CARSON    PTSUNNY   73  51  46 NW6       30.28R
LIMON          FAIR      78  49  35 W9        30.24S
MONUMENT HILL  FAIR      70  50  49 SW7       30.39S
TRINIDAD       NOT AVBL
$$

COZ042>045-048>051-090-091-221500-
...NORTHEAST COLORADO...

CITY           SKY/WX    TMP DP  RH WIND       PRES   REMARKS
GREELEY ARPT   FAIR      73  57  56 NW3       30.20S
AKRON          FAIR      73  57  57 W5        30.18R
BURLINGTON     FAIR      81  55  40 NW6       30.16R
WRAY           NOT AVBL
STERLING       FAIR      70  63  78 SW3       30.13R
HOLYOKE        FAIR      79  68  69 W6        30.12R
FORT MORGAN    FAIR      76  57  51 W3        30.18S
$$

COZ086-089-092>099-221500-
...SOUTHEAST COLORADO...

CITY           SKY/WX    TMP DP  RH WIND       PRES   REMARKS
PUEBLO         FAIR      80  51  36 W7        30.21R
LA JUNTA       FAIR      80  54  40 W13       30.16S
LAMAR          FAIR      77  57  50 W7        30.10F
SPRINGFIELD      N/A     84  52  33 W15G22    30.14S
$$




USA.gov is the U.S. government's official web portal to all federal, state and local government web resources and services.